Погода в Сортавале

Хотите узнать прогноз погоды в Сортавале? Тогда Вам сюда: Погода в Сортавале

Поиск расширенной информации на нашем сайте:

Полезная информация:

Новости сайта



02.01.2020
Опубликован Долгосрочный прогноз погоды по городам России и ближнего зарубежья на январь 2020 года.
Карты: Прогноз на январь и февраль 2020 года, Сравнение прогнозируемой аномалии приземной температуры воздуха на январь 2020 года по разным моделям.




Погода в Сортавале - сегодня

Время (UTC), дата Ветер
(°,м/с) 
Видим.   Явления Облачность Т
(°С)
Тd
(°С)
f(%) Тe
(°С)
Pmin
(гПа)
dP
(гПа)
Po
(мм)
O2
(г/м3)
Тmin Tmax R s Состояние
почвы
18 24.01.20 270 (З) 50000 м    1/1 600 м 
[Sc]
-2.1 -3.5 90 -2  992.7  0.5  743  302    +1.5       
21 24.01.20 230 (ЮЗ) 50000 м    ясно 
-4.2 -5.1 93 -4  992.4  -0.4  743  304           
00 25.01.20 240 (ЮЗ) 15000 м  в посл. час ливневой снег  10/10 450 м кучево-дожд. 
[Cb cap]
-1.6 -2.9 91 -3  989.8  -2.5  741  300           
03 25.01.20 230 (ЮЗ) 9000 м  слаб. ливневой снег  8/8 450 м кучево-дожд. 
[Cb cap]
-1.1 -2.4 91 -2  987.8  -2  739  299  -4.3    0.0     
06 25.01.20 280 (З) 3000 м  ливневой снег  10/10 420 м кучево-дожд. 
[Cb cap]
-0.9 -2.2 91 -2  988.2  0.4  739  299  -4.3    0.5  равномерный
сухой снег
100% 
09 25.01.20 290 (З) 20000 м  {ливн. осадки}  9/9 600 м кучево-дожд. 
[Cb cap]
-0.6 -4.7 74 -3  990.4  2.2  741  300           
12 25.01.20 300 (СЗ) 4{10}  20000 м  {ливн. осадки}  9/4 600 м кучево-дожд., средняя, верхняя 
[Cb cap|Ac trans|Ci fib]
-0.5 -4.6 74 -3  993.3  2.9  743  301           
15 25.01.20 310 (СЗ) 4{11}  50000 м    10/10 720 м кучево-дожд. 
[Cb cap]
-0.8 -5.4 71 -3  996.9  3.6  746  302      0.2     
18 25.01.20 300 (СЗ) 4{11}  50000 м    9/0 средняя, верхняя 
[Ac trans|Ci fib]
-2.4 -6.4 74 -5  999.6  2.6  748  305    -0.4  0.2     
21 25.01.20 310 (СЗ) 50000 м    6/6 570 м 
[Sc]
-4.1 -6.6 83 -5  1002.5  2.9  750  308           
00 26.01.20 290 (З) 50000 м    9/9 480 м кучево-дожд. 
[Cb cap]
-3.4 -6.1 82 -5  1004  1.5  751  307           
03 26.01.20 250 (З) 50000 м    10/10 420 м кучево-дожд. 
[Cb cap]
-3.9 -6 85 -5  1003.9  -0.1  751  308  -4.2         
06 26.01.20 160 (Ю) 50000 м    10/10 420 м кучево-дожд. 
[Cb cap]
-3.8 -5.4 89 -3  1001.9  -2  750  307  -4.2      равномерный
сухой снег
100% 
09 26.01.20 080 (В) 1100 м  слаб. ливневой снег  10/10 420 м кучево-дожд. 
[Cb cap]
-2.2 -2.9 95 -3  998.7  -3.2  747  304           
12 26.01.20 040 (СВ) 20000 м  в посл. час ливневой снег  10/10 630 м кучево-дожд. 
[Cb cap]
-1.7 -2.9 91 -4  998.1  -0.5  747  303           
15 26.01.20 010 (С) 50000 м  {ливн. осадки}  9/9 450 м кучево-дожд. 
[Cb cap]
-2.6 -4.6 86 -5  1002.7  4.5  750  306         
18 26.01.20 360 (С) 50000 м  {ливн. осадки}  10/10 700 м кучево-дожд. 
[Cb cap]
-4.6 -7.9 78 -8  1007.1  4.4  754  310    -1.4     
21 26.01.20 330 (СЗ) 50000 м    ясно 
-8.8 -10.3 89 -10  1010  2.9  756  316           
00 27.01.20 тихо ()   50000 м    ясно 
-12.7 -14.3 88 -13  1012.4  2.3  757  321           
03 27.01.20 330 (СЗ) 50000 м    ясно 
-14.3 -15.7 89 -14  1014.4  759  324  -15.2         
06 27.01.20 350 (С) 50000 м    ясно 
-16.8 -18.2 89 -17  1015.9  1.5  760  328  -18      11  равномерный
сухой снег
100% 
09 27.01.20 070 (В) 20000 м    10/0 средняя 
[Ac As]
-11.9 -13.7 86 -14  1016.6  0.7  761  322           
12 27.01.20 080 (В) 20000 м    10/8 500 м средняя 
[Sc|As op]
-9.4 -11.3 86 -12  1016.1  -0.5  760  318           
15 27.01.20 080 (В) 50000 м    10/3 600 м средняя 
[Sc|Ac As]
-8.9 -10.8 86 -13  1015.3  -0.8  760  317           
18 27.01.20 090 (В) 40000 м    10/10 420 м кучево-дожд. 
[Cb cap]
-8 -9.8 87 -12  1014.2  -1  759  316    -7.9       
Время (UTC), дата Ветер
(°,м/с) 
Видим.   Явления Облачность Т
(°С)
Тd
(°С)
f(%) Тe
(°С)
Pmin
(гПа)
dP
(гПа)
Po
(мм)
O2
(г/м3)
Тmin Tmax R s Состояние
почвы

Для получения пояснительной информации подведите курсор к названию столбца.

ПОГОДА в Сортавале - архив

Всё, что Вы хотите узнать о погоде в Сортавале - удобно и подробно!

Выберите нужную дату (начиная с 1 января 2019* года) и нажмите кнопку "Найти".
Будут отображены архивные сводки погоды по пункту Сортавала, начиная с указанной даты.


Отображать данные в формате CSV (для использования в таблицах Excel)


Внимание! Наш архив погоды предназначен исключительно для личного некоммерческого использования в познавательных целях. Если Вам необходимы официальные справки о состоянии погоды (для производственных, юридических, коммерческих и т.п. целей), обращайтесь в органы Росгидромета.

*Примечание: данная дата относится к архиву по метеостанциям СССР (Россия, СНГ, Балтия).
Архив по метеостанциям Зарубежной Европы и Азии (кроме Китая) хранится 10 дней, по другим регионам земного шара (Китай, Африка, Америка, Австралия, Океания) - 1 день.

Сортавала - район местоположения метеостанции


Название, широта, долгота, высота метеостанции:
Сортавала 61.7°ш. 30.7°д. 19 м над ур. моря [Российская Федерация]

Дополнительная информация

В oтличие oт бoльшинства пoгoдных сайтoв мы публикуем пoдрoбную метеoинфoрмацию в детальнoм прoфессиoнальнoм фoрмате.

Характеристики температуры и влажнoсти вoздуха измеряются на высoте 2 м в тени вдали oт зданий и деревьев.
Скoрoсть ветра измеряется на высoте 10 м (на урoвне рoста челoвека скoрoсть ветра ниже в 1.5-2 раза). Если метеoстанция нахoдится в гoрoде или в лесу, тo скoрoсть ветра занижена на 2-4 м/с пo сравнению с oткрытым местoм. Скoрoсть ветра над акватoриями крупных рек и oзёр, а также на вершинах хoлмoв на 2-5 м/с выше, чем в oбычных услoвиях.
Атмoсфернoе давление в разных тoчках местнoсти мoжет значительнo oтличаться oт давления на метеoстанции, в зависимoсти oт услoвий рельефа (при пoдъёме на 10 м давление пoнижается примернo на 1 мм рт.ст.).